Time,TemperatureF,DewpointF,PressureIn,WindDirection,WindDirectionDegrees,WindSpeedMPH,WindSpeedGustMPH,Humidity,HourlyPrecipIn,Conditions,Clouds,dailyrainin,SoftwareType,DateUTC
2013-07-01 00:01:00,74.2,73.3,29.93,SSW,208,0.0,0.0,97,0.00,,---,0.00,VWS V14.01,2013-07-01 04:01:00,
2013-07-01 00:03:00,74.2,73.3,29.93,SE,127,0.0,2.0,97,0.00,,---,0.00,VWS V14.01,2013-07-01 04:03:00,
2013-07-01 00:08:00,74.2,73.3,29.93,SSE,155,0.0,2.0,97,0.01,,---,0.01,VWS V14.01,2013-07-01 04:08:00,
2013-07-01 00:13:00,74.2,73.3,29.93,SSE,150,0.0,2.0,97,0.01,,---,0.01,VWS V14.01,2013-07-01 04:13:00,
2013-07-01 00:18:00,74.2,73.3,29.93,SE,124,0.0,2.0,97,0.01,,---,0.01,VWS V14.01,2013-07-01 04:18:00,
2013-07-01 00:23:00,74.2,73.3,29.93,SW,229,0.0,2.0,97,0.01,,---,0.01,VWS V14.01,2013-07-01 04:23:00,
2013-07-01 00:28:00,74.2,73.3,29.92,ESE,104,0.0,2.0,97,0.01,,---,0.01,VWS V14.01,2013-07-01 04:28:00,
2013-07-01 00:33:00,74.3,73.7,29.93,SE,137,0.0,1.0,98,0.01,,---,0.01,VWS V14.01,2013-07-01 04:33:00,
2013-07-01 00:39:00,74.2,73.6,29.93,South,191,0.0,3.0,98,0.01,,---,0.01,VWS V14.01,2013-07-01 04:39:00,
2013-07-01 00:44:00,74.2,73.3,29.93,SSE,152,0.0,3.0,97,0.01,,---,0.01,VWS V14.01,2013-07-01 04:44:00,
2013-07-01 00:49:00,74.2,73.3,29.93,SW,217,0.0,3.0,97,0.01,,---,0.01,VWS V14.01,2013-07-01 04:49:00,
2013-07-01 00:54:00,74.2,73.3,29.92,SSE,160,0.0,3.0,97,0.01,,---,0.01,VWS V14.01,2013-07-01 04:54:00,
2013-07-01 00:59:00,74.2,73.6,29.93,SSW,207,1.0,3.0,98,0.01,,---,0.01,VWS V14.01,2013-07-01 04:59:00,
2013-07-01 01:04:00,74.2,73.6,29.93,SSE,149,0.0,2.0,98,0.01,,---,0.01,VWS V14.01,2013-07-01 05:04:00,
2013-07-01 01:09:00,74.2,73.6,29.92,SSW,197,0.0,2.0,98,0.01,,---,0.01,VWS V14.01,2013-07-01 05:09:00,
2013-07-01 01:14:00,74.2,73.6,29.93,SE,140,0.0,2.0,98,0.01,,---,0.01,VWS V14.01,2013-07-01 05:14:00,
2013-07-01 01:19:00,74.1,73.5,29.92,SE,141,0.0,2.0,98,0.01,,---,0.01,VWS V14.01,2013-07-01 05:19:00,
2013-07-01 01:24:00,74.1,73.5,29.92,South,190,0.0,2.0,98,0.01,,---,0.01,VWS V14.01,2013-07-01 05:24:00,
2013-07-01 01:29:00,74.1,73.5,29.92,WSW,257,0.0,2.0,98,0.01,,---,0.01,VWS V14.01,2013-07-01 05:29:00,
2013-07-01 01:34:00,74.1,73.5,29.92,SSE,156,0.0,1.0,98,0.00,,---,0.01,VWS V14.01,2013-07-01 05:34:00,
2013-07-01 01:40:00,74.1,73.5,29.91,SSW,208,0.0,1.0,98,0.00,,---,0.01,VWS V14.01,2013-07-01 05:40:00,
2013-07-01 01:45:00,74.1,73.5,29.91,South,177,0.0,1.0,98,0.00,,---,0.01,VWS V14.01,2013-07-01 05:45:00,
2013-07-01 01:50:00,74.1,73.5,29.91,SSW,204,0.0,1.0,98,0.00,,---,0.01,VWS V14.01,2013-07-01 05:50:00,
2013-07-01 01:55:00,74.1,73.5,29.91,SE,143,0.0,1.0,98,0.00,,---,0.01,VWS V14.01,2013-07-01 05:55:00,
2013-07-01 02:00:00,74.1,73.5,29.91,SSE,159,0.0,1.0,98,0.00,,---,0.01,VWS V14.01,2013-07-01 06:00:00,
2013-07-01 02:05:00,74.1,73.5,29.91,SE,145,0.0,2.0,98,0.00,,---,0.01,VWS V14.01,2013-07-01 06:05:00,
2013-07-01 02:10:00,74.1,73.5,29.91,SSE,163,0.0,2.0,98,0.00,,---,0.01,VWS V14.01,2013-07-01 06:10:00,
2013-07-01 02:15:00,74.1,73.5,29.91,SE,142,0.0,2.0,98,0.00,,---,0.01,VWS V14.01,2013-07-01 06:15:00,
2013-07-01 02:20:00,74.1,73.5,29.91,SW,225,0.0,2.0,98,0.00,,---,0.01,VWS V14.01,2013-07-01 06:20:00,
2013-07-01 02:21:00,74.1,73.5,29.91,SW,224,0.0,2.0,98,0.00,,---,0.01,VWS V14.01,2013-07-01 06:21:00,
2013-07-01 02:26:00,74.1,73.5,29.91,SSE,152,1.0,2.0,98,0.00,,---,0.01,VWS V14.01,2013-07-01 06:26:00,
2013-07-01 02:31:00,74.2,73.6,29.91,SSW,211,1.0,1.0,98,0.00,,---,0.01,VWS V14.01,2013-07-01 06:31:00,
2013-07-01 02:36:00,74.2,73.6,29.91,SE,134,0.0,2.0,98,0.00,,---,0.01,VWS V14.01,2013-07-01 06:36:00,
2013-07-01 02:41:00,74.2,73.6,29.91,SSW,193,0.0,2.0,98,0.00,,---,0.01,VWS V14.01,2013-07-01 06:41:00,
2013-07-01 02:46:00,74.3,73.7,29.91,SSW,193,0.0,2.0,98,0.00,,---,0.01,VWS V14.01,2013-07-01 06:46:00,
2013-07-01 02:51:00,74.3,73.7,29.91,SSW,202,0.0,2.0,98,0.00,,---,0.01,VWS V14.01,2013-07-01 06:51:00,
2013-07-01 02:56:00,74.4,73.8,29.90,SW,219,0.0,2.0,98,0.00,,---,0.01,VWS V14.01,2013-07-01 06:56:00,
2013-07-01 03:01:00,74.4,73.8,29.90,SW,219,0.0,0.0,98,0.00,,---,0.01,VWS V14.01,2013-07-01 07:01:00,
2013-07-01 03:06:00,74.4,73.8,29.90,SE,129,0.0,2.0,98,0.00,,---,0.01,VWS V14.01,2013-07-01 07:06:00,
2013-07-01 03:11:00,74.4,73.8,29.90,SE,136,1.0,2.0,98,0.00,,---,0.01,VWS V14.01,2013-07-01 07:11:00,
2013-07-01 03:16:00,74.4,73.8,29.89,SE,143,0.0,2.0,98,0.00,,---,0.01,VWS V14.01,2013-07-01 07:16:00,
2013-07-01 03:21:00,74.4,73.8,29.89,ESE,112,0.0,2.0,98,0.00,,---,0.01,VWS V14.01,2013-07-01 07:21:00,
2013-07-01 03:26:00,74.4,73.8,29.89,SE,141,0.0,2.0,98,0.00,,---,0.01,VWS V14.01,2013-07-01 07:26:00,
2013-07-01 03:31:00,74.4,73.8,29.89,ESE,120,0.0,2.0,98,0.00,,---,0.01,VWS V14.01,2013-07-01 07:31:00,
2013-07-01 03:36:00,74.4,73.8,29.90,SSE,152,0.0,2.0,98,0.00,,---,0.01,VWS V14.01,2013-07-01 07:36:00,
2013-07-01 03:42:00,74.4,73.8,29.90,WSW,250,0.0,2.0,98,0.00,,---,0.01,VWS V14.01,2013-07-01 07:42:00,
2013-07-01 03:47:00,74.4,73.8,29.90,WSW,250,0.0,2.0,98,0.00,,---,0.01,VWS V14.01,2013-07-01 07:47:00,
2013-07-01 03:52:00,74.4,73.8,29.90,WSW,250,0.0,2.0,98,0.00,,---,0.01,VWS V14.01,2013-07-01 07:52:00,
2013-07-01 03:57:00,74.4,73.8,29.90,WSW,253,0.0,2.0,98,0.00,,---,0.01,VWS V14.01,2013-07-01 07:57:00,
2013-07-01 04:02:00,74.4,73.8,29.91,WSW,252,0.0,1.0,98,0.00,,---,0.01,VWS V14.01,2013-07-01 08:02:00,
2013-07-01 04:07:00,74.4,73.8,29.91,WSW,252,0.0,1.0,98,0.00,,---,0.01,VWS V14.01,2013-07-01 08:07:00,
2013-07-01 04:12:00,74.3,73.7,29.91,WSW,252,0.0,1.0,98,0.00,,---,0.01,VWS V14.01,2013-07-01 08:12:00,
2013-07-01 04:17:00,74.4,73.8,29.91,SW,214,0.0,1.0,98,0.00,,---,0.01,VWS V14.01,2013-07-01 08:17:00,
2013-07-01 04:22:00,74.4,73.8,29.91,SSW,212,0.0,1.0,98,0.00,,---,0.01,VWS V14.01,2013-07-01 08:22:00,
2013-07-01 04:28:00,74.4,73.8,29.91,SW,219,0.0,1.0,98,0.00,,---,0.01,VWS V14.01,2013-07-01 08:28:00,
2013-07-01 04:33:00,74.5,73.9,29.91,South,186,0.0,1.0,98,0.00,,---,0.01,VWS V14.01,2013-07-01 08:33:00,
2013-07-01 04:38:00,74.5,73.9,29.91,SSW,199,0.0,1.0,98,0.00,,---,0.01,VWS V14.01,2013-07-01 08:38:00,
2013-07-01 04:43:00,74.4,73.8,29.90,SSW,200,0.0,1.0,98,0.00,,---,0.01,VWS V14.01,2013-07-01 08:43:00,
2013-07-01 04:48:00,74.4,73.8,29.90,SSW,198,0.0,1.0,98,0.00,,---,0.01,VWS V14.01,2013-07-01 08:48:00,
2013-07-01 04:53:00,74.5,73.9,29.90,SE,141,0.0,3.0,98,0.00,,---,0.01,VWS V14.01,2013-07-01 08:53:00,
2013-07-01 04:58:00,74.5,73.9,29.90,SSE,149,0.0,3.0,98,0.00,,---,0.01,VWS V14.01,2013-07-01 08:58:00,
2013-07-01 05:03:00,74.5,73.9,29.90,South,177,0.0,1.0,98,0.00,,---,0.01,VWS V14.01,2013-07-01 09:03:00,
2013-07-01 05:08:00,74.6,74.0,29.90,SE,136,1.0,1.0,98,0.00,,---,0.01,VWS V14.01,2013-07-01 09:08:00,
2013-07-01 05:13:00,74.5,73.9,29.90,SSE,160,2.0,2.0,98,0.00,,---,0.01,VWS V14.01,2013-07-01 09:13:00,
2013-07-01 05:19:00,74.5,73.9,29.90,South,179,1.0,2.0,98,0.00,,---,0.01,VWS V14.01,2013-07-01 09:19:00,
2013-07-01 05:24:00,74.6,74.0,29.90,SSE,149,0.0,3.0,98,0.00,,---,0.01,VWS V14.01,2013-07-01 09:24:00,
2013-07-01 05:29:00,74.6,74.0,29.90,SSE,149,0.0,3.0,98,0.00,,---,0.01,VWS V14.01,2013-07-01 09:29:00,
2013-07-01 05:34:00,74.6,74.0,29.90,SSE,163,0.0,0.0,98,0.00,,---,0.01,VWS V14.01,2013-07-01 09:34:00,
2013-07-01 05:39:00,74.7,74.1,29.90,SSW,208,0.0,3.0,98,0.00,,---,0.01,VWS V14.01,2013-07-01 09:39:00,
2013-07-01 05:44:00,74.7,74.1,29.90,SW,236,0.0,3.0,98,0.00,,---,0.01,VWS V14.01,2013-07-01 09:44:00,
2013-07-01 05:49:00,74.7,74.1,29.90,SSE,149,0.0,3.0,98,0.00,,---,0.01,VWS V14.01,2013-07-01 09:49:00,
2013-07-01 05:54:00,74.8,74.2,29.90,SSE,158,0.0,3.0,98,0.00,,---,0.01,VWS V14.01,2013-07-01 09:54:00,
2013-07-01 05:59:00,74.8,74.2,29.91,South,187,2.0,5.0,98,0.03,,---,0.04,VWS V14.01,2013-07-01 09:59:00,
2013-07-01 06:04:00,74.9,74.3,29.91,SE,136,2.0,7.0,98,0.12,,---,0.13,VWS V14.01,2013-07-01 10:04:00,
2013-07-01 06:10:00,75.0,74.4,29.91,SW,215,7.0,7.0,98,0.12,,---,0.13,VWS V14.01,2013-07-01 10:10:00,
2013-07-01 06:15:00,75.1,74.5,29.91,South,176,0.0,7.0,98,0.12,,---,0.13,VWS V14.01,2013-07-01 10:15:00,
2013-07-01 06:20:00,75.2,74.6,29.92,SSW,204,1.0,7.0,98,0.12,,---,0.13,VWS V14.01,2013-07-01 10:20:00,
2013-07-01 06:25:00,75.2,74.6,29.92,South,179,0.0,7.0,98,0.12,,---,0.13,VWS V14.01,2013-07-01 10:25:00,
2013-07-01 06:30:00,75.1,74.5,29.91,SE,135,3.0,5.0,98,0.12,,---,0.13,VWS V14.01,2013-07-01 10:30:00,
2013-07-01 06:35:00,75.1,74.5,29.92,SSE,152,0.0,5.0,98,0.12,,---,0.13,VWS V14.01,2013-07-01 10:35:00,
2013-07-01 06:40:00,75.1,74.5,29.92,SSE,163,0.0,5.0,98,0.12,,---,0.13,VWS V14.01,2013-07-01 10:40:00,
2013-07-01 06:45:00,75.0,74.4,29.92,South,188,1.0,6.0,98,0.12,,---,0.13,VWS V14.01,2013-07-01 10:45:00,
2013-07-01 06:50:00,75.0,74.4,29.93,South,190,3.0,6.0,98,0.12,,---,0.13,VWS V14.01,2013-07-01 10:50:00,
2013-07-01 06:56:00,75.0,74.4,29.93,WSW,238,0.0,6.0,98,0.12,,---,0.13,VWS V14.01,2013-07-01 10:56:00,
2013-07-01 07:01:00,75.0,74.4,29.93,SSW,200,1.0,2.0,98,0.07,,---,0.13,VWS V14.01,2013-07-01 11:01:00,
2013-07-01 07:06:00,75.1,74.5,29.93,SSW,201,1.0,7.0,98,0.07,,---,0.13,VWS V14.01,2013-07-01 11:06:00,
2013-07-01 07:11:00,75.1,74.5,29.94,SSW,194,0.0,7.0,98,0.07,,---,0.13,VWS V14.01,2013-07-01 11:11:00,
2013-07-01 07:16:00,75.1,74.5,29.94,SSE,156,1.0,7.0,98,0.07,,---,0.13,VWS V14.01,2013-07-01 11:16:00,
2013-07-01 07:21:00,75.1,74.5,29.94,SSW,212,0.0,7.0,98,0.07,,---,0.13,VWS V14.01,2013-07-01 11:21:00,
2013-07-01 07:26:00,75.1,74.5,29.94,SW,235,1.0,7.0,98,0.07,,---,0.13,VWS V14.01,2013-07-01 11:26:00,
2013-07-01 07:31:00,75.1,74.5,29.94,SSE,149,0.0,2.0,98,0.00,,---,0.13,VWS V14.01,2013-07-01 11:31:00,
2013-07-01 07:36:00,75.0,74.4,29.95,SE,145,3.0,6.0,98,0.00,,---,0.13,VWS V14.01,2013-07-01 11:36:00,
2013-07-01 07:42:00,75.0,74.4,29.95,SSW,207,0.0,6.0,98,0.00,,---,0.13,VWS V14.01,2013-07-01 11:42:00,
2013-07-01 07:47:00,75.0,74.4,29.95,SSW,201,2.0,6.0,98,0.00,,---,0.13,VWS V14.01,2013-07-01 11:47:00,
2013-07-01 07:52:00,75.1,74.5,29.95,SSW,210,3.0,6.0,98,0.01,,---,0.14,VWS V14.01,2013-07-01 11:52:00,
2013-07-01 07:57:00,75.2,74.3,29.95,SSW,212,3.0,6.0,97,0.01,,---,0.14,VWS V14.01,2013-07-01 11:57:00,
2013-07-01 08:02:00,75.1,74.2,29.95,West,264,4.0,4.0,97,0.01,,---,0.14,VWS V14.01,2013-07-01 12:02:00,
2013-07-01 08:07:00,75.1,74.2,29.95,SW,222,4.0,5.0,97,0.01,,---,0.14,VWS V14.01,2013-07-01 12:07:00,
2013-07-01 08:12:00,75.2,74.3,29.95,SSE,155,2.0,5.0,97,0.01,,---,0.14,VWS V14.01,2013-07-01 12:12:00,
2013-07-01 08:18:00,75.3,74.4,29.95,SE,130,1.0,5.0,97,0.01,,---,0.14,VWS V14.01,2013-07-01 12:18:00,
2013-07-01 08:23:00,75.4,74.5,29.94,SW,224,1.0,6.0,97,0.01,,---,0.14,VWS V14.01,2013-07-01 12:23:00,
2013-07-01 08:28:00,75.5,74.6,29.95,South,188,2.0,6.0,97,0.01,,---,0.14,VWS V14.01,2013-07-01 12:28:00,
2013-07-01 08:33:00,75.7,74.5,29.95,SSW,204,3.0,5.0,96,0.01,,---,0.14,VWS V14.01,2013-07-01 12:33:00,
2013-07-01 08:38:00,75.9,74.7,29.95,South,170,1.0,5.0,96,0.01,,---,0.14,VWS V14.01,2013-07-01 12:38:00,
2013-07-01 08:43:00,76.3,75.1,29.95,West,278,2.0,5.0,96,0.01,,---,0.14,VWS V14.01,2013-07-01 12:43:00,
2013-07-01 08:48:00,76.6,74.8,29.95,SSW,212,3.0,8.0,94,0.01,,---,0.14,VWS V14.01,2013-07-01 12:48:00,
2013-07-01 08:53:00,76.7,74.5,29.95,WSW,249,3.0,8.0,93,0.01,,---,0.14,VWS V14.01,2013-07-01 12:53:00,
2013-07-01 08:58:00,77.2,75.0,29.95,SW,221,1.0,8.0,93,0.01,,---,0.14,VWS V14.01,2013-07-01 12:58:00,
2013-07-01 09:03:00,77.6,75.1,29.95,West,271,1.0,5.0,92,0.00,,---,0.14,VWS V14.01,2013-07-01 13:03:00,
2013-07-01 09:08:00,78.0,75.5,29.95,ESE,116,0.0,8.0,92,0.00,,---,0.14,VWS V14.01,2013-07-01 13:08:00,
2013-07-01 09:14:00,78.3,75.1,29.95,South,169,1.0,9.0,90,0.00,,---,0.14,VWS V14.01,2013-07-01 13:14:00,
2013-07-01 09:19:00,78.4,75.2,29.95,SSE,156,0.0,10.0,90,0.00,,---,0.14,VWS V14.01,2013-07-01 13:19:00,
2013-07-01 09:24:00,78.6,75.4,29.95,South,179,1.0,10.0,90,0.00,,---,0.14,VWS V14.01,2013-07-01 13:24:00,
2013-07-01 09:29:00,78.6,75.1,29.94,SSE,149,2.0,10.0,89,0.00,,---,0.14,VWS V14.01,2013-07-01 13:29:00,
2013-07-01 09:34:00,79.1,75.6,29.94,SE,133,1.0,5.0,89,0.00,,---,0.14,VWS V14.01,2013-07-01 13:34:00,
2013-07-01 09:39:00,79.5,75.6,29.94,SSW,200,2.0,11.0,88,0.00,,---,0.14,VWS V14.01,2013-07-01 13:39:00,
2013-07-01 09:44:00,80.1,75.9,29.94,SSW,210,1.0,11.0,87,0.00,,---,0.14,VWS V14.01,2013-07-01 13:44:00,
2013-07-01 09:49:00,80.6,75.7,29.94,South,170,1.0,11.0,85,0.00,,---,0.14,VWS V14.01,2013-07-01 13:49:00,
2013-07-01 09:54:00,81.1,75.8,29.94,SSE,151,2.0,11.0,84,0.00,,---,0.14,VWS V14.01,2013-07-01 13:54:00,
2013-07-01 09:59:00,81.7,76.0,29.95,SSW,211,0.0,11.0,83,0.00,,---,0.14,VWS V14.01,2013-07-01 13:59:00,
2013-07-01 10:04:00,82.1,76.4,29.94,South,172,1.0,5.0,83,0.00,,---,0.14,VWS V14.01,2013-07-01 14:04:00,
2013-07-01 10:09:00,82.6,75.8,29.94,SSE,158,3.0,8.0,80,0.00,,---,0.14,VWS V14.01,2013-07-01 14:09:00,
2013-07-01 10:15:00,82.6,76.2,29.94,SSW,203,1.0,10.0,81,0.00,,---,0.14,VWS V14.01,2013-07-01 14:15:00,
2013-07-01 10:20:00,82.4,74.5,29.95,South,170,5.0,12.0,77,0.00,,---,0.14,VWS V14.01,2013-07-01 14:20:00,
2013-07-01 10:25:00,82.5,75.3,29.95,South,179,7.0,12.0,79,0.00,,---,0.14,VWS V14.01,2013-07-01 14:25:00,
2013-07-01 10:30:00,82.5,74.9,29.95,ESE,117,2.0,12.0,78,0.00,,---,0.14,VWS V14.01,2013-07-01 14:30:00,
2013-07-01 10:35:00,82.3,75.1,29.95,South,180,1.0,10.0,79,0.00,,---,0.14,VWS V14.01,2013-07-01 14:35:00,
2013-07-01 10:40:00,82.6,75.4,29.95,South,186,2.0,10.0,79,0.00,,---,0.14,VWS V14.01,2013-07-01 14:40:00,
2013-07-01 10:45:00,82.8,75.6,29.95,SE,141,4.0,10.0,79,0.00,,---,0.14,VWS V14.01,2013-07-01 14:45:00,
2013-07-01 10:50:00,83.2,76.0,29.96,SE,127,0.0,10.0,79,0.00,,---,0.14,VWS V14.01,2013-07-01 14:50:00,
2013-07-01 10:55:00,83.7,76.1,29.96,SW,229,2.0,10.0,78,0.00,,---,0.14,VWS V14.01,2013-07-01 14:55:00,
2013-07-01 11:00:00,83.9,76.7,29.96,WSW,250,5.0,5.0,79,0.00,,---,0.14,VWS V14.01,2013-07-01 15:00:00,
2013-07-01 11:06:00,84.5,76.1,29.97,SSW,195,3.0,7.0,76,0.00,,---,0.14,VWS V14.01,2013-07-01 15:06:00,
2013-07-01 11:11:00,84.2,76.2,29.97,South,179,2.0,8.0,77,0.00,,---,0.14,VWS V14.01,2013-07-01 15:11:00,
2013-07-01 11:16:00,84.2,76.6,29.97,South,169,3.0,8.0,78,0.00,,---,0.14,VWS V14.01,2013-07-01 15:16:00,
2013-07-01 11:21:00,84.4,76.8,29.97,WSW,239,4.0,8.0,78,0.00,,---,0.14,VWS V14.01,2013-07-01 15:21:00,
2013-07-01 11:26:00,84.4,76.4,29.97,SE,142,1.0,12.0,77,0.00,,---,0.14,VWS V14.01,2013-07-01 15:26:00,
2013-07-01 11:31:00,84.7,77.1,29.97,South,177,1.0,3.0,78,0.00,,---,0.14,VWS V14.01,2013-07-01 15:31:00,
2013-07-01 11:36:00,84.8,76.8,29.97,SSE,160,2.0,7.0,77,0.00,,---,0.14,VWS V14.01,2013-07-01 15:36:00,
2013-07-01 11:41:00,84.7,77.1,29.97,West,281,1.0,8.0,78,0.00,,---,0.14,VWS V14.01,2013-07-01 15:41:00,
2013-07-01 11:46:00,85.2,77.6,29.97,SSE,162,3.0,8.0,78,0.00,,---,0.14,VWS V14.01,2013-07-01 15:46:00,
2013-07-01 11:51:00,85.5,77.5,29.98,SSW,201,1.0,8.0,77,0.00,,---,0.14,VWS V14.01,2013-07-01 15:51:00,
2013-07-01 11:56:00,85.5,77.9,29.98,South,170,2.0,8.0,78,0.00,,---,0.14,VWS V14.01,2013-07-01 15:56:00,
2013-07-01 12:02:00,85.5,77.5,29.98,SE,129,3.0,7.0,77,0.00,,---,0.14,VWS V14.01,2013-07-01 16:02:00,
2013-07-01 12:07:00,85.5,77.9,29.98,West,276,3.0,7.0,78,0.00,,---,0.14,VWS V14.01,2013-07-01 16:07:00,
2013-07-01 12:12:00,85.6,77.2,29.98,SSW,210,2.0,10.0,76,0.00,,---,0.14,VWS V14.01,2013-07-01 16:12:00,
2013-07-01 12:17:00,85.7,76.5,29.98,South,179,2.0,15.0,74,0.00,,---,0.14,VWS V14.01,2013-07-01 16:17:00,
2013-07-01 12:22:00,85.5,76.7,29.98,South,171,6.0,15.0,75,0.00,,---,0.14,VWS V14.01,2013-07-01 16:22:00,
2013-07-01 12:27:00,85.6,77.2,29.98,SE,136,2.0,15.0,76,0.00,,---,0.14,VWS V14.01,2013-07-01 16:27:00,
2013-07-01 12:32:00,85.8,77.0,29.98,SE,134,4.0,7.0,75,0.00,,---,0.14,VWS V14.01,2013-07-01 16:32:00,
2013-07-01 12:37:00,85.8,77.0,29.98,NNE,26,2.0,9.0,75,0.00,,---,0.14,VWS V14.01,2013-07-01 16:37:00,
2013-07-01 12:42:00,86.0,76.3,29.98,SSE,152,4.0,9.0,73,0.00,,---,0.14,VWS V14.01,2013-07-01 16:42:00,
2013-07-01 12:47:00,86.2,77.8,29.98,SW,214,5.0,9.0,76,0.00,,---,0.14,VWS V14.01,2013-07-01 16:47:00,
2013-07-01 12:52:00,86.5,77.2,29.97,SE,130,1.0,9.0,74,0.00,,---,0.14,VWS V14.01,2013-07-01 16:52:00,
2013-07-01 12:57:00,86.6,77.3,29.97,SE,133,2.0,9.0,74,0.00,,---,0.14,VWS V14.01,2013-07-01 16:57:00,
2013-07-01 13:02:00,86.8,76.7,29.97,WSW,242,1.0,7.0,72,0.00,,---,0.14,VWS V14.01,2013-07-01 17:02:00,
2013-07-01 13:07:00,86.7,77.4,29.96,West,262,2.0,8.0,74,0.00,,---,0.14,VWS V14.01,2013-07-01 17:07:00,
2013-07-01 13:13:00,86.7,77.0,29.96,SW,219,1.0,8.0,73,0.00,,---,0.14,VWS V14.01,2013-07-01 17:13:00,
2013-07-01 13:18:00,87.0,77.7,29.97,SE,140,1.0,8.0,74,0.00,,---,0.14,VWS V14.01,2013-07-01 17:18:00,
2013-07-01 13:23:00,87.3,77.2,29.96,ESE,103,1.0,8.0,72,0.00,,---,0.14,VWS V14.01,2013-07-01 17:23:00,
2013-07-01 13:28:00,87.4,77.3,29.96,WNW,297,2.0,8.0,72,0.00,,---,0.14,VWS V14.01,2013-07-01 17:28:00,
2013-07-01 13:33:00,87.7,78.0,29.95,SW,228,4.0,5.0,73,0.00,,---,0.14,VWS V14.01,2013-07-01 17:33:00,
2013-07-01 13:38:00,88.0,77.0,29.96,South,186,3.0,9.0,70,0.00,,---,0.14,VWS V14.01,2013-07-01 17:38:00,
2013-07-01 13:43:00,88.0,77.4,29.95,WSW,245,1.0,9.0,71,0.00,,---,0.14,VWS V14.01,2013-07-01 17:43:00,
2013-07-01 13:48:00,88.3,78.6,29.95,SE,140,1.0,9.0,73,0.00,,---,0.14,VWS V14.01,2013-07-01 17:48:00,
2013-07-01 13:53:00,86.5,73.3,29.97,SSW,193,8.0,15.0,65,0.00,,---,0.14,VWS V14.01,2013-07-01 17:53:00,
2013-07-01 13:58:00,81.3,72.2,29.96,ESE,105,2.0,15.0,74,0.06,,---,0.20,VWS V14.01,2013-07-01 17:58:00,
2013-07-01 14:03:00,77.9,71.2,29.95,SSW,204,4.0,6.0,80,0.07,,---,0.21,VWS V14.01,2013-07-01 18:03:00,
2013-07-01 14:08:00,76.5,71.3,29.96,ESE,105,0.0,6.0,84,0.08,,---,0.22,VWS V14.01,2013-07-01 18:08:00,
2013-07-01 14:14:00,75.8,71.3,29.96,East,97,0.0,6.0,86,0.08,,---,0.22,VWS V14.01,2013-07-01 18:14:00,
2013-07-01 14:19:00,75.5,71.7,29.95,ENE,75,0.0,6.0,88,0.08,,---,0.22,VWS V14.01,2013-07-01 18:19:00,
2013-07-01 14:24:00,75.6,72.5,29.95,ENE,75,0.0,6.0,90,0.08,,---,0.22,VWS V14.01,2013-07-01 18:24:00,
2013-07-01 14:29:00,75.8,72.3,29.94,ESE,122,0.0,6.0,89,0.08,,---,0.22,VWS V14.01,2013-07-01 18:29:00,
2013-07-01 14:34:00,76.0,72.9,29.95,ESE,120,0.0,1.0,90,0.08,,---,0.22,VWS V14.01,2013-07-01 18:34:00,
2013-07-01 14:39:00,76.2,73.4,29.97,SW,232,0.0,3.0,91,0.08,,---,0.22,VWS V14.01,2013-07-01 18:39:00,
2013-07-01 14:44:00,76.2,72.7,29.97,NNW,348,2.0,7.0,89,0.08,,---,0.22,VWS V14.01,2013-07-01 18:44:00,
2013-07-01 14:49:00,75.7,72.2,29.96,SW,216,7.0,10.0,89,0.16,,---,0.30,VWS V14.01,2013-07-01 18:49:00,
2013-07-01 14:54:00,74.8,71.3,29.95,West,263,1.0,10.0,89,0.20,,---,0.34,VWS V14.01,2013-07-01 18:54:00,
2013-07-01 14:59:00,74.5,71.7,29.96,SE,129,0.0,10.0,91,0.20,,---,0.34,VWS V14.01,2013-07-01 18:59:00,
2013-07-01 15:04:00,74.3,71.8,29.97,ENE,66,0.0,1.0,92,0.14,,---,0.34,VWS V14.01,2013-07-01 19:04:00,
2013-07-01 15:09:00,74.4,71.9,29.97,ENE,65,0.0,1.0,92,0.14,,---,0.34,VWS V14.01,2013-07-01 19:09:00,
2013-07-01 15:14:00,74.5,72.3,29.96,ENE,65,0.0,1.0,93,0.14,,---,0.34,VWS V14.01,2013-07-01 19:14:00,
2013-07-01 15:19:00,74.6,72.4,29.95,East,80,0.0,1.0,93,0.14,,---,0.34,VWS V14.01,2013-07-01 19:19:00,
2013-07-01 15:25:00,74.8,72.6,29.96,ESE,108,0.0,1.0,93,0.14,,---,0.34,VWS V14.01,2013-07-01 19:25:00,
2013-07-01 15:30:00,75.1,73.3,29.96,South,169,0.0,1.0,94,0.14,,---,0.34,VWS V14.01,2013-07-01 19:30:00,
2013-07-01 15:35:00,75.1,72.9,29.98,WSW,238,0.0,3.0,93,0.12,,---,0.34,VWS V14.01,2013-07-01 19:35:00,
2013-07-01 15:40:00,75.1,72.6,29.98,SSE,153,0.0,3.0,92,0.12,,---,0.34,VWS V14.01,2013-07-01 19:40:00,
2013-07-01 15:45:00,75.0,72.5,29.98,West,271,1.0,3.0,92,0.12,,---,0.34,VWS V14.01,2013-07-01 19:45:00,
2013-07-01 15:50:00,75.3,73.1,29.98,SSE,153,1.0,5.0,93,0.12,,---,0.34,VWS V14.01,2013-07-01 19:50:00,
2013-07-01 15:55:00,75.7,73.5,29.98,SSE,165,0.0,6.0,93,0.12,,---,0.34,VWS V14.01,2013-07-01 19:55:00,
2013-07-01 16:00:00,76.0,73.5,29.98,South,185,2.0,2.0,92,0.00,,---,0.34,VWS V14.01,2013-07-01 20:00:00,
2013-07-01 16:05:00,75.9,73.1,29.99,SW,217,1.0,7.0,91,0.01,,---,0.35,VWS V14.01,2013-07-01 20:05:00,
2013-07-01 16:10:00,75.4,72.9,29.98,NW,309,1.0,7.0,92,0.12,,---,0.46,VWS V14.01,2013-07-01 20:10:00,
2013-07-01 16:15:00,74.7,72.2,29.99,West,260,1.0,7.0,92,0.21,,---,0.55,VWS V14.01,2013-07-01 20:15:00,
2013-07-01 16:20:00,74.2,72.1,29.99,WSW,253,3.0,7.0,93,0.22,,---,0.56,VWS V14.01,2013-07-01 20:20:00,
2013-07-01 16:25:00,74.0,72.2,30.00,West,280,3.0,7.0,94,0.24,,---,0.58,VWS V14.01,2013-07-01 20:25:00,
2013-07-01 16:30:00,73.9,72.4,30.00,SSW,208,0.0,1.0,95,0.26,,---,0.60,VWS V14.01,2013-07-01 20:30:00,
2013-07-01 16:36:00,73.9,72.4,30.00,West,272,0.0,2.0,95,0.27,,---,0.61,VWS V14.01,2013-07-01 20:36:00,
2013-07-01 16:41:00,73.9,72.7,30.00,SW,221,0.0,5.0,96,0.28,,---,0.62,VWS V14.01,2013-07-01 20:41:00,
2013-07-01 16:46:00,73.9,72.7,30.00,SW,219,0.0,5.0,96,0.28,,---,0.62,VWS V14.01,2013-07-01 20:46:00,
2013-07-01 16:51:00,73.9,72.7,29.99,SW,221,0.0,5.0,96,0.29,,---,0.63,VWS V14.01,2013-07-01 20:51:00,
2013-07-01 16:56:00,73.9,72.7,30.00,SSE,164,0.0,5.0,96,0.30,,---,0.64,VWS V14.01,2013-07-01 20:56:00,
2013-07-01 17:01:00,73.9,72.7,30.00,SSE,162,0.0,0.0,96,0.31,,---,0.65,VWS V14.01,2013-07-01 21:01:00,
2013-07-01 17:06:00,74.0,72.8,30.00,SSE,162,0.0,0.0,96,0.32,,---,0.66,VWS V14.01,2013-07-01 21:06:00,
2013-07-01 17:11:00,74.0,72.8,30.00,SSE,162,0.0,0.0,96,0.32,,---,0.66,VWS V14.01,2013-07-01 21:11:00,
2013-07-01 17:16:00,74.0,72.8,30.00,SSE,162,0.0,0.0,96,0.33,,---,0.67,VWS V14.01,2013-07-01 21:16:00,
2013-07-01 17:21:00,73.9,72.7,30.00,SSE,149,0.0,1.0,96,0.33,,---,0.67,VWS V14.01,2013-07-01 21:21:00,
2013-07-01 17:26:00,73.7,72.5,29.99,South,170,0.0,1.0,96,0.34,,---,0.68,VWS V14.01,2013-07-01 21:26:00,
2013-07-01 17:31:00,73.6,72.4,29.99,East,91,1.0,1.0,96,0.09,,---,0.69,VWS V14.01,2013-07-01 21:31:00,
2013-07-01 17:36:00,73.2,71.7,29.99,East,91,0.0,1.0,95,0.09,,---,0.69,VWS V14.01,2013-07-01 21:36:00,
2013-07-01 17:41:00,72.8,71.3,29.99,East,91,0.0,1.0,95,0.10,,---,0.70,VWS V14.01,2013-07-01 21:41:00,
2013-07-01 17:46:00,72.6,71.4,30.00,East,91,0.0,1.0,96,0.11,,---,0.71,VWS V14.01,2013-07-01 21:46:00,
2013-07-01 17:51:00,72.6,71.4,30.00,ESE,122,0.0,1.0,96,0.11,,---,0.71,VWS V14.01,2013-07-01 21:51:00,
2013-07-01 17:57:00,72.5,71.3,30.01,SSW,195,1.0,3.0,96,0.12,,---,0.72,VWS V14.01,2013-07-01 21:57:00,
2013-07-01 18:02:00,72.6,71.4,30.00,WSW,255,0.0,0.0,96,0.07,,---,0.72,VWS V14.01,2013-07-01 22:02:00,
2013-07-01 18:07:00,72.6,71.4,30.00,SSW,208,0.0,1.0,96,0.08,,---,0.73,VWS V14.01,2013-07-01 22:07:00,
2013-07-01 18:12:00,72.9,72.0,30.01,West,264,1.0,1.0,97,0.09,,---,0.74,VWS V14.01,2013-07-01 22:12:00,
2013-07-01 18:17:00,73.0,71.8,30.01,ESE,118,0.0,4.0,96,0.09,,---,0.74,VWS V14.01,2013-07-01 22:17:00,
2013-07-01 18:22:00,73.1,72.2,30.01,SSE,153,0.0,4.0,97,0.09,,---,0.74,VWS V14.01,2013-07-01 22:22:00,
2013-07-01 18:27:00,73.3,72.4,30.01,WSW,242,0.0,4.0,97,0.09,,---,0.74,VWS V14.01,2013-07-01 22:27:00,
2013-07-01 18:32:00,73.5,72.6,30.01,SSW,212,0.0,0.0,97,0.05,,---,0.74,VWS V14.01,2013-07-01 22:32:00,
2013-07-01 18:37:00,73.6,72.7,30.01,West,265,0.0,2.0,97,0.05,,---,0.74,VWS V14.01,2013-07-01 22:37:00,
2013-07-01 18:43:00,73.6,72.7,30.01,South,186,0.0,2.0,97,0.05,,---,0.74,VWS V14.01,2013-07-01 22:43:00,
2013-07-01 18:48:00,73.7,72.8,30.02,SSE,157,0.0,2.0,97,0.05,,---,0.74,VWS V14.01,2013-07-01 22:48:00,
2013-07-01 18:53:00,73.8,72.9,30.02,WSW,238,0.0,2.0,97,0.05,,---,0.74,VWS V14.01,2013-07-01 22:53:00,
2013-07-01 18:58:00,73.8,72.9,30.02,SSE,153,0.0,2.0,97,0.05,,---,0.74,VWS V14.01,2013-07-01 22:58:00,
2013-07-01 19:03:00,73.8,72.9,30.02,SW,221,1.0,2.0,97,0.03,,---,0.75,VWS V14.01,2013-07-01 23:03:00,
2013-07-01 19:08:00,73.9,73.0,30.02,SSE,165,1.0,3.0,97,0.03,,---,0.75,VWS V14.01,2013-07-01 23:08:00,
2013-07-01 19:13:00,73.8,72.6,30.01,SSW,212,0.0,3.0,96,0.03,,---,0.75,VWS V14.01,2013-07-01 23:13:00,
2013-07-01 19:18:00,73.8,72.9,30.01,SSW,204,0.0,3.0,97,0.03,,---,0.75,VWS V14.01,2013-07-01 23:18:00,
2013-07-01 19:23:00,73.8,72.9,30.01,SW,215,0.0,3.0,97,0.03,,---,0.75,VWS V14.01,2013-07-01 23:23:00,
2013-07-01 19:29:00,73.9,73.0,30.01,SW,218,0.0,3.0,97,0.03,,---,0.75,VWS V14.01,2013-07-01 23:29:00,
2013-07-01 19:34:00,73.9,73.0,30.00,SSE,155,0.0,1.0,97,0.01,,---,0.75,VWS V14.01,2013-07-01 23:34:00,
2013-07-01 19:39:00,73.9,73.0,30.00,SSE,155,0.0,1.0,97,0.01,,---,0.75,VWS V14.01,2013-07-01 23:39:00,
2013-07-01 19:44:00,74.0,73.1,30.00,WSW,239,0.0,1.0,97,0.01,,---,0.75,VWS V14.01,2013-07-01 23:44:00,
2013-07-01 19:49:00,73.9,72.7,30.00,WSW,239,0.0,1.0,96,0.01,,---,0.75,VWS V14.01,2013-07-01 23:49:00,
2013-07-01 19:54:00,73.9,73.0,30.00,SW,222,0.0,1.0,97,0.01,,---,0.75,VWS V14.01,2013-07-01 23:54:00,
2013-07-01 19:59:00,73.8,72.9,30.00,SW,222,0.0,1.0,97,0.02,,---,0.76,VWS V14.01,2013-07-01 23:59:00,
2013-07-01 20:04:00,73.8,72.9,30.00,SW,233,0.0,1.0,97,0.02,,---,0.76,VWS V14.01,2013-07-02 00:04:00,
2013-07-01 20:09:00,73.8,72.9,30.00,SW,233,0.0,1.0,97,0.02,,---,0.76,VWS V14.01,2013-07-02 00:09:00,
2013-07-01 20:15:00,73.8,72.9,30.00,SW,233,0.0,1.0,97,0.02,,---,0.76,VWS V14.01,2013-07-02 00:15:00,
2013-07-01 20:20:00,73.7,72.8,30.00,SW,233,0.0,1.0,97,0.02,,---,0.76,VWS V14.01,2013-07-02 00:20:00,
2013-07-01 20:25:00,73.7,72.8,29.99,SW,233,0.0,1.0,97,0.02,,---,0.76,VWS V14.01,2013-07-02 00:25:00,
2013-07-01 20:30:00,73.5,72.6,29.99,SW,233,0.0,0.0,97,0.01,,---,0.76,VWS V14.01,2013-07-02 00:30:00,
2013-07-01 20:35:00,73.6,72.7,29.99,WSW,239,0.0,0.0,97,0.01,,---,0.76,VWS V14.01,2013-07-02 00:35:00,
2013-07-01 20:40:00,73.5,72.6,29.99,WSW,238,0.0,0.0,97,0.01,,---,0.76,VWS V14.01,2013-07-02 00:40:00,
2013-07-01 20:45:00,73.5,72.6,30.00,WSW,239,0.0,0.0,97,0.01,,---,0.76,VWS V14.01,2013-07-02 00:45:00,
2013-07-01 20:50:00,73.5,72.6,30.00,WSW,238,0.0,0.0,97,0.01,,---,0.76,VWS V14.01,2013-07-02 00:50:00,
2013-07-01 20:55:00,73.4,72.5,30.00,WSW,239,0.0,0.0,97,0.01,,---,0.76,VWS V14.01,2013-07-02 00:55:00,
2013-07-01 21:00:00,73.3,72.4,30.00,WSW,239,0.0,0.0,97,0.00,,---,0.76,VWS V14.01,2013-07-02 01:00:00,
2013-07-01 21:06:00,73.3,72.4,30.01,WSW,238,0.0,0.0,97,0.00,,---,0.76,VWS V14.01,2013-07-02 01:06:00,
2013-07-01 21:11:00,73.3,72.4,30.01,WSW,239,0.0,0.0,97,0.00,,---,0.76,VWS V14.01,2013-07-02 01:11:00,
2013-07-01 21:16:00,73.3,72.4,30.01,WSW,239,0.0,0.0,97,0.00,,---,0.76,VWS V14.01,2013-07-02 01:16:00,
2013-07-01 21:21:00,73.4,72.5,30.02,WSW,239,0.0,0.0,97,0.00,,---,0.76,VWS V14.01,2013-07-02 01:21:00,
2013-07-01 21:26:00,73.4,72.5,30.02,WSW,238,0.0,0.0,97,0.00,,---,0.76,VWS V14.01,2013-07-02 01:26:00,
2013-07-01 21:31:00,73.4,72.5,30.02,WSW,239,0.0,0.0,97,0.00,,---,0.76,VWS V14.01,2013-07-02 01:31:00,
2013-07-01 21:36:00,73.4,72.5,30.02,WSW,239,0.0,0.0,97,0.00,,---,0.76,VWS V14.01,2013-07-02 01:36:00,
2013-07-01 21:41:00,73.4,72.5,30.03,WSW,238,0.0,0.0,97,0.00,,---,0.76,VWS V14.01,2013-07-02 01:41:00,
2013-07-01 21:46:00,73.4,72.5,30.03,WSW,239,0.0,0.0,97,0.00,,---,0.76,VWS V14.01,2013-07-02 01:46:00,
2013-07-01 21:52:00,73.4,72.5,30.03,WSW,239,0.0,0.0,97,0.00,,---,0.76,VWS V14.01,2013-07-02 01:52:00,
2013-07-01 21:57:00,73.3,72.4,30.03,WSW,239,0.0,1.0,97,0.00,,---,0.76,VWS V14.01,2013-07-02 01:57:00,
2013-07-01 22:02:00,73.3,72.4,30.04,WSW,239,0.0,0.0,97,0.00,,---,0.76,VWS V14.01,2013-07-02 02:02:00,
2013-07-01 22:07:00,73.4,72.8,30.04,WSW,239,0.0,1.0,98,0.00,,---,0.76,VWS V14.01,2013-07-02 02:07:00,
2013-07-01 22:12:00,73.3,72.4,30.04,WSW,239,0.0,1.0,97,0.00,,---,0.76,VWS V14.01,2013-07-02 02:12:00,
2013-07-01 22:17:00,73.2,72.3,30.04,WSW,239,0.0,1.0,97,0.00,,---,0.76,VWS V14.01,2013-07-02 02:17:00,
2013-07-01 22:22:00,73.4,72.8,30.04,WNW,288,0.0,1.0,98,0.00,,---,0.76,VWS V14.01,2013-07-02 02:22:00,
2013-07-01 22:28:00,73.4,72.5,30.04,WNW,289,0.0,1.0,97,0.00,,---,0.76,VWS V14.01,2013-07-02 02:28:00,
2013-07-01 22:33:00,73.3,72.4,30.04,WNW,290,0.0,0.0,97,0.00,,---,0.76,VWS V14.01,2013-07-02 02:33:00,
2013-07-01 22:38:00,73.3,72.4,30.04,WNW,288,0.0,0.0,97,0.00,,---,0.76,VWS V14.01,2013-07-02 02:38:00,
2013-07-01 22:43:00,73.2,72.3,30.05,WNW,288,0.0,0.0,97,0.00,,---,0.76,VWS V14.01,2013-07-02 02:43:00,
2013-07-01 22:48:00,73.2,72.6,30.05,WNW,288,0.0,0.0,98,0.00,,---,0.76,VWS V14.01,2013-07-02 02:48:00,
2013-07-01 22:53:00,73.2,72.6,30.05,WNW,288,0.0,0.0,98,0.00,,---,0.76,VWS V14.01,2013-07-02 02:53:00,
2013-07-01 22:58:00,73.2,72.6,30.05,WNW,288,0.0,0.0,98,0.00,,---,0.76,VWS V14.01,2013-07-02 02:58:00,
2013-07-01 23:03:00,73.3,72.7,30.05,WNW,288,0.0,0.0,98,0.00,,---,0.76,VWS V14.01,2013-07-02 03:03:00,
2013-07-01 23:08:00,73.3,72.7,30.05,NNW,330,0.0,1.0,98,0.00,,---,0.76,VWS V14.01,2013-07-02 03:08:00,
2013-07-01 23:13:00,73.3,72.7,30.05,NNW,330,0.0,1.0,98,0.00,,---,0.76,VWS V14.01,2013-07-02 03:13:00,
2013-07-01 23:19:00,73.3,72.7,30.05,NNW,330,0.0,1.0,98,0.00,,---,0.76,VWS V14.01,2013-07-02 03:19:00,
2013-07-01 23:24:00,73.3,72.7,30.05,NE,52,0.0,1.0,98,0.00,,---,0.76,VWS V14.01,2013-07-02 03:24:00,
2013-07-01 23:29:00,73.3,72.7,30.05,NE,52,0.0,1.0,98,0.00,,---,0.76,VWS V14.01,2013-07-02 03:29:00,
2013-07-01 23:34:00,73.2,72.6,30.05,NE,52,0.0,1.0,98,0.00,,---,0.76,VWS V14.01,2013-07-02 03:34:00,
2013-07-01 23:39:00,73.1,72.5,30.05,NE,53,0.0,1.0,98,0.00,,---,0.76,VWS V14.01,2013-07-02 03:39:00,
2013-07-01 23:44:00,73.1,72.5,30.05,ENE,60,0.0,1.0,98,0.00,,---,0.76,VWS V14.01,2013-07-02 03:44:00,
2013-07-01 23:49:00,73.0,72.4,30.05,ENE,60,0.0,1.0,98,0.00,,---,0.76,VWS V14.01,2013-07-02 03:49:00,
2013-07-01 23:54:00,72.9,72.3,30.05,ENE,59,0.0,1.0,98,0.00,,---,0.76,VWS V14.01,2013-07-02 03:54:00,
2013-07-01 23:59:00,72.9,72.3,30.05,ENE,60,0.0,1.0,98,0.00,,---,0.76,VWS V14.01,2013-07-02 03:59:00,